Showing default

E-KAGAKU-1, 65942

Orbit data source: Space-Track

E-KAGAKU-1, 65942 is a Japanese payload satellite in LEO that was delivered to the ISS. Payload-class satellites include a variety of spacecraft equipped with specific instruments for various scientific and technological missions. These include communications satellites like Starlink; space stations such as the ISS; scientific satellites like the Hubble; Earth observation satellites from companies like Planet Labs, Umbra, and HawkEye 360; GPS; miniature CubeSats for education and research; and military/defense satellites.

Loading next visibility...
Identifier
65942, 1998-067XP
Orbit
LEO
Country
Flag of JPJP / JPN
Related business
Manufacturer
EKAG
Mission
Operational Amateur Technology
Bus & Motor
CUBESAT 1U, Unknown motor
Mass
1 kg wet, 1 kg dry
Launch date (UTC)
1998-11-20 (27 years ago)
Launch vehicle
FALCON 9
Launch site
Tyuratam Missile And Space Complex (TTMTR)
Object type
Payload
Rocket body
Debris
Shape & HBR
Box, 0.1 m
Radar Cross Section
0.015 m²

Expand to show TLE details & history
Last TLE update: 1 day ago

TLE from 1 day ago
0 E-KAGAKU-1
1 65942U 98067XP  26034.91604493  .00306933  00000-0  14689-2 0  9991
2 65942  51.6183 227.5880 0005467 240.0563 119.9896 15.81334182 18228
Epoch: 2026-02-03T21:59Z
TLE epoch observation values (Epoch: 2026-02-03T21:59:06.281Z)
Latitude
-0.00008°
Longitude
123.72165°
Altitude
329.249 km
Speed
7.711 km/s
True Right ascension
15h 10m 21s
True Declination
0° 00' 00"
Sunlit
Object was in daylight at epoch
Visualization orbit readout
Latitude
Unknown
Longitude
Unknown
Altitude
Unknown
Speed
Unknown
Apparent Right ascension
Unknown
Apparent Declination
Unknown
Sunlit
N/A
Visualization observer readout
Local Sidereal Time
08:59:47
Azimuth
Unknown
Elevation
Unknown
Doppler factor
Unknown
Orbital elements
Apogee altitude
330.851 km
Perigee altitude
323.519 km
Semi-major axis
6,705.322 km
Eccentricity
0.00055
Inclination
51.6183°
RAAN
227.588°
Arg. of periapsis
240.0563°
True anomaly
120.04384°
Mean anomaly
119.9896°
Eccentric anomaly
120.01672°
Mean motion
3.95288 °/min
Orbital period
91.07 mins
BSTAR
0.0014689
Loading maneuver chart data...
Computing Atmospheric mass density...

Documentation

Showing up to 5 results
|